Vorticity
9 9 11 9 1 3 0 -0 8 8 4 3 6 3 6 7 7 2 10 13 12 9 14 10 -14 13 20 2 10 14 -10 6 19 5 12 3 1 3 5 5 9 4 5 8 6 7 5 4 4
9 9 11 4 3 7 1 10 8 16 4 3 2 3 -2 0 9 7 3 8 14 8 11 17 -6 4 8 10 6 -2 -0 13 4 1 7 4 3 6 5 6 9 4 7 7 7 5 4 4 5
10 9 11 4 -2 4 4 4 6 7 2 2 3 4 1 6 5 5 5 9 -2 15 15 24 5 8 -4 10 4 -2 12 6 -5 8 1 5 5 6 5 10 7 5 8 6 5 3 3 4 5
8 7 11 3 -3 10 5 2 1 0 -0 3 5 4 2 8 7 6 10 -5 11 19 11 21 3 5 17 -14 -6 3 10 9 5 5 3 2 4 4 7 11 6 6 8 6 3 5 6 6 4
6 8 11 6 3 7 11 6 -1 1 -5 3 1 8 -1 5 3 10 15 8 23 22 11 43 -2 4 2 3 5 4 8 6 -2 -5 13 -1 4 7 9 11 6 7 6 2 5 6 3 2 3
6 7 3 7 -2 -1 -0 -1 13 4 -1 5 -1 5 3 6 4 11 10 12 13 16 15 20 19 4 11 -5 3 6 18 7 15 -13 2 9 2 8 11 9 7 8 3 5 5 3 3 3 3
7 5 6 5 -2 5 -4 4 8 7 4 0 6 1 6 1 7 16 7 10 -1 37 -0 25 -0 35 2 -46 -1 6 1 -1 14 0 8 10 3 7 14 8 7 6 6 6 5 3 3 5 5
5 8 7 7 6 -2 -4 7 7 5 6 3 10 -2 -0 4 8 12 11 10 16 35 10 9 1 9 13 43 8 10 12 -8 2 -1 0 6 -2 3 12 7 7 8 4 4 3 3 6 2 4
3 7 2 5 8 -5 2 7 4 3 7 7 3 5 3 3 6 10 5 14 10 11 16 22 8 15 20 2 8 12 -9 -5 15 -12 17 1 3 5 11 7 8 5 4 3 3 3 4 4 5
6 0 5 24 13 -2 0 2 1 2 1 2 3 9 3 -0 10 7 6 5 0 6 1 23 -0 7 12 3 4 7 -1 3 -10 13 5 3 1 4 8 8 6 4 3 3 4 4 5 5 5
5 -4 10 10 -4 -1 3 -3 2 5 2 0 -0 8 12 4 12 1 5 -4 22 20 19 -7 4 7 15 9 10 12 4 -9 23 19 2 10 14 4 7 5 3 3 3 3 4 5 2 4 3
5 4 4 1 0 1 0 1 -2 -0 1 5 11 16 9 7 9 2 4 15 49 39 20 11 6 -8 8 15 10 20 -16 15 14 -11 -0 8 2 6 8 6 5 2 3 5 4 2 3 2 5
9 10 10 9 7 2 1 0 4 16 4 10 14 7 5 9 9 3 7 23 30 17 19 24 11 8 4 6 2 23 0 15 6 9 11 10 5 3 7 7 4 6 4 0 4 4 0 0 -3
5 3 2 5 6 5 2 2 3 -8 17 14 7 5 7 9 6 4 8 24 13 6 13 11 7 12 11 17 20 -8 15 24 18 24 5 8 8 4 6 6 4 3 -4 5 5 3 3 1 5
6 4 3 8 8 20 46 25 25 6 21 5 2 2 8 10 5 4 9 22 7 26 16 11 5 7 25 11 70 52 10 9 10 2 -0 21 9 5 5 8 4 -0 5 3 7 1 4 5 5
10 12 10 15 8 -8 15 2 -5 9 7 3 -2 8 8 11 4 4 8 13 17 20 4 6 10 4 36 7 62 36 37 27 10 15 19 14 6 6 5 3 7 1 3 -5 -7 0 3 5 5
22 -7 3 -1 7 6 5 5 2 5 12 3 3 6 15 10 4 6 7 14 23 16 24 10 -0 2 40 -7 37 31 -12 -1 19 -11 16 13 7 7 10 2 8 2 2 -3 27 5 4 3 4
10 8 0 12 15 10 -1 5 5 7 5 8 3 7 14 5 3 6 7 15 38 15 2 11 5 8 4 39 47 17 4 -41 27 15 7 12 6 9 5 6 -0 -1 14 5 4 2 4 2 4
4 3 -3 -5 -5 17 1 1 10 2 4 5 5 16 9 4 5 6 6 13 61 5 15 4 7 3 -1 4 42 1 -10 -4 7 26 -1 0 6 -5 7 0 -1 5 4 11 -7 8 4 2 6
5 -8 -6 2 -1 25 13 6 12 18 10 3 1 6 11 4 4 5 6 14 64 -0 5 6 8 7 27 8 16 8 16 15 12 4 1 10 2 6 -3 -10 4 -2 -0 2 6 1 4 2 5
2 8 7 1 -9 3 13 24 15 4 10 1 7 1 7 16 1 4 6 11 17 39 12 9 8 -13 14 -17 -6 -1 -3 23 12 9 4 1 8 19 10 6 0 -5 -1 6 -2 3 7 2 6
7 6 7 5 13 4 -4 6 9 6 13 5 6 27 21 14 4 3 5 8 9 15 27 36 11 12 33 -11 7 22 54 1 2 18 38 5 4 -7 -14 -1 -3 16 1 7 1 5 7 -1 3
-4 24 18 13 27 20 26 12 6 -4 -2 19 20 12 4 13 6 3 4 4 10 8 8 12 16 35 42 11 -7 19 18 3 4 11 9 -14 29 13 10 30 14 29 9 1 4 7 6 1 5
4 45 -9 14 15 25 5 -14 21 23 -5 27 10 13 16 16 3 3 3 7 5 10 7 5 7 11 16 21 27 8 9 3 11 22 8 -0 6 17 13 22 3 16 1 5 7 1 5 0 5
-8 -20 6 19 11 7 19 28 -24 -11 -6 25 17 5 17 20 3 8 12 4 8 6 9 7 5 6 7 12 12 24 27 22 14 10 13 13 14 16 29 6 14 18 4 1 4 -2 8 17 4
14 10 -19 4 6 17 37 15 1 24 -13 7 13 4 15 18 3 3 3 9 8 7 4 7 7 5 5 6 7 9 9 14 17 16 18 17 18 18 12 13 17 14 7 -3 4 4 -1 8 8
16 21 12 -20 -18 2 5 10 14 0 -3 20 26 12 17 13 0 7 1 1 4 4 9 8 4 5 5 4 5 7 8 5 7 9 9 10 10 9 7 8 13 14 9 4 -1 -1 -1 3 5
-7 9 4 14 12 7 11 10 -10 8 -18 -7 6 16 21 12 9 13 7 -3 2 4 0 4 8 6 3 5 3 2 2 4 6 6 6 6 6 6 6 5 4 4 5 5 4 3 4 7 5
36 16 -14 16 -11 -1 11 13 19 -4 22 43 17 10 31 9 -3 12 12 13 8 7 6 3 1 6 12 4 2 4 3 2 2 2 2 4 4 4 4 4 4 4 3 3 4 3 2 4 5
-3 30 35 -17 -8 17 5 10 -25 7 -20 15 -1 11 3 4 13 14 16 10 5 10 11 10 16 17 8 10 17 6 4 -5 8 1 5 4 4 5 5 6 6 7 6 7 7 5 6 21 -4
Height
3138 3138 3138 3138 3143 3138 3138 3139 3136 3136 3136 3135 3133 3133 3132 3130 3129 3130 3125 3123 3123 3123 3122 3123 3125 3128 3130 3133 3135 3138 3142 3146 3148 3151 3153 3155 3157 3157 3160 3163 3165 3167 3168 3169 3170 3170 3170 3171 3172
3137 3137 3138 3138 3141 3138 3138 3137 3135 3134 3134 3133 3132 3131 3129 3127 3125 3123 3122 3120 3119 3119 3120 3118 3120 3124 3127 3129 3132 3136 3138 3142 3145 3149 3151 3153 3156 3157 3160 3163 3165 3166 3168 3170 3171 3172 3171 3172 3173
3136 3136 3137 3138 3138 3138 3138 3136 3135 3133 3133 3131 3130 3128 3126 3124 3121 3119 3117 3116 3114 3112 3113 3112 3113 3117 3121 3126 3129 3133 3136 3139 3143 3146 3150 3151 3153 3156 3160 3162 3164 3166 3169 3169 3171 3171 3172 3173 3175
3135 3136 3136 3137 3137 3138 3136 3135 3133 3132 3131 3130 3128 3125 3123 3121 3117 3115 3112 3110 3106 3104 3100 3099 3099 3107 3115 3122 3127 3131 3134 3137 3141 3142 3146 3149 3152 3155 3158 3161 3164 3166 3168 3170 3170 3173 3174 3174 3175
3133 3133 3133 3134 3135 3136 3135 3133 3132 3130 3129 3127 3125 3123 3120 3117 3113 3111 3108 3104 3099 3092 3089 3074 3092 3101 3110 3119 3122 3127 3131 3135 3138 3140 3143 3148 3151 3154 3158 3161 3163 3165 3167 3169 3171 3173 3174 3175 3175
3130 3131 3131 3131 3132 3132 3132 3131 3129 3128 3127 3124 3122 3119 3117 3114 3110 3107 3104 3100 3095 3088 3083 3060 3078 3097 3106 3114 3120 3124 3128 3132 3136 3139 3143 3146 3149 3153 3156 3160 3162 3165 3167 3170 3172 3173 3174 3175 3175
3128 3128 3128 3128 3129 3129 3128 3127 3127 3125 3124 3121 3119 3115 3113 3111 3108 3104 3100 3097 3093 3090 3087 3081 3073 3085 3101 3107 3114 3120 3125 3129 3133 3135 3138 3144 3147 3150 3155 3158 3161 3164 3167 3170 3172 3173 3174 3175 3176
3124 3126 3125 3126 3127 3127 3125 3123 3122 3122 3120 3118 3116 3112 3110 3108 3104 3100 3097 3095 3092 3091 3090 3089 3085 3091 3100 3098 3107 3114 3121 3126 3129 3133 3137 3139 3143 3148 3153 3158 3161 3164 3167 3169 3171 3173 3174 3174 3176
3121 3122 3122 3123 3124 3124 3122 3120 3119 3118 3116 3115 3112 3109 3107 3104 3101 3098 3095 3092 3089 3090 3091 3091 3090 3094 3096 3100 3104 3111 3117 3121 3126 3130 3134 3137 3141 3147 3153 3156 3159 3163 3166 3169 3171 3172 3173 3175 3176
3118 3117 3118 3119 3120 3120 3119 3117 3115 3114 3113 3111 3108 3105 3103 3101 3097 3095 3093 3090 3086 3084 3086 3088 3090 3090 3093 3096 3100 3106 3109 3116 3121 3126 3130 3133 3137 3145 3149 3153 3158 3162 3165 3168 3170 3171 3173 3174 3175
3113 3112 3115 3116 3116 3115 3115 3114 3112 3110 3108 3107 3104 3102 3099 3098 3094 3090 3087 3084 3080 3077 3080 3083 3085 3087 3090 3091 3090 3098 3101 3109 3116 3121 3126 3130 3133 3140 3145 3150 3155 3160 3165 3168 3170 3170 3172 3173 3174
3109 3110 3111 3113 3112 3111 3110 3109 3108 3107 3105 3103 3100 3098 3096 3094 3090 3086 3081 3074 3069 3069 3074 3076 3081 3083 3087 3088 3089 3087 3091 3103 3112 3115 3121 3125 3129 3135 3142 3149 3155 3160 3164 3167 3168 3169 3170 3172 3175
3105 3106 3107 3107 3107 3106 3106 3105 3104 3101 3101 3099 3097 3095 3093 3091 3088 3083 3078 3071 3067 3068 3069 3071 3073 3077 3079 3079 3082 3081 3086 3096 3102 3110 3115 3121 3124 3130 3139 3147 3153 3158 3162 3165 3167 3168 3169 3172 3172
3101 3101 3101 3101 3102 3102 3102 3100 3100 3098 3098 3095 3094 3092 3090 3089 3085 3080 3075 3069 3066 3066 3066 3068 3069 3069 3067 3066 3069 3073 3081 3089 3097 3102 3111 3117 3121 3129 3137 3145 3151 3157 3160 3163 3167 3168 3169 3171 3172
3096 3096 3096 3096 3098 3096 3096 3093 3094 3095 3093 3091 3090 3089 3087 3086 3083 3078 3073 3067 3063 3063 3063 3064 3064 3065 3059 3052 3046 3055 3071 3080 3090 3097 3107 3114 3119 3127 3136 3143 3149 3155 3159 3161 3164 3165 3167 3170 3170
3093 3092 3092 3092 3094 3093 3093 3089 3092 3091 3089 3088 3087 3086 3085 3083 3080 3075 3070 3066 3062 3062 3062 3062 3062 3062 3055 3047 3046 3052 3066 3078 3087 3097 3104 3111 3119 3126 3135 3141 3147 3151 3155 3158 3162 3163 3165 3167 3167
3087 3086 3087 3088 3089 3089 3089 3087 3088 3087 3086 3085 3084 3083 3082 3080 3077 3072 3067 3063 3061 3061 3063 3061 3060 3059 3058 3056 3056 3059 3070 3079 3089 3095 3102 3108 3118 3126 3133 3139 3144 3148 3151 3155 3159 3160 3162 3164 3164
3079 3081 3083 3083 3085 3083 3084 3084 3083 3083 3082 3081 3080 3079 3079 3078 3074 3070 3065 3060 3057 3059 3061 3061 3061 3061 3061 3062 3062 3067 3071 3079 3087 3094 3101 3107 3117 3125 3131 3137 3141 3145 3148 3151 3155 3157 3159 3160 3162
3078 3078 3078 3079 3081 3079 3080 3080 3079 3080 3079 3078 3077 3075 3075 3075 3073 3069 3063 3058 3053 3056 3060 3061 3061 3062 3064 3065 3067 3070 3076 3082 3086 3092 3100 3105 3110 3120 3128 3134 3139 3142 3145 3150 3152 3153 3155 3157 3159
3072 3073 3073 3075 3077 3075 3074 3074 3075 3075 3075 3074 3074 3073 3072 3073 3071 3069 3065 3060 3054 3055 3058 3061 3062 3063 3065 3067 3070 3074 3078 3082 3088 3094 3099 3104 3109 3114 3121 3128 3134 3137 3140 3144 3146 3150 3152 3153 3155
3065 3068 3069 3070 3074 3072 3070 3067 3070 3071 3070 3070 3069 3070 3068 3070 3069 3068 3065 3062 3059 3056 3056 3059 3062 3064 3065 3067 3072 3075 3078 3083 3089 3094 3099 3102 3107 3111 3118 3121 3127 3130 3135 3139 3143 3146 3148 3149 3151
3059 3064 3066 3067 3071 3070 3067 3061 3063 3065 3065 3064 3064 3064 3064 3066 3067 3067 3065 3063 3061 3059 3058 3057 3059 3062 3064 3068 3071 3074 3079 3082 3088 3093 3096 3101 3104 3109 3113 3117 3121 3126 3130 3136 3139 3142 3144 3145 3145
3054 3059 3062 3063 3065 3066 3063 3064 3054 3058 3058 3058 3058 3059 3061 3063 3064 3065 3064 3064 3062 3060 3060 3059 3058 3058 3061 3065 3068 3070 3076 3082 3086 3089 3092 3097 3101 3105 3109 3111 3116 3122 3127 3131 3135 3137 3139 3141 3140
3056 3056 3059 3058 3061 3058 3057 3061 3048 3052 3054 3053 3053 3055 3057 3058 3061 3062 3062 3062 3062 3061 3061 3061 3061 3061 3060 3061 3065 3069 3073 3078 3082 3086 3089 3094 3096 3100 3104 3109 3114 3118 3122 3125 3130 3133 3134 3134 3134
3050 3054 3055 3055 3055 3047 3051 3052 3046 3048 3050 3050 3050 3051 3052 3053 3056 3059 3060 3060 3061 3062 3062 3062 3063 3063 3064 3064 3066 3068 3071 3075 3079 3082 3086 3091 3094 3097 3100 3105 3107 3111 3117 3121 3124 3126 3127 3127 3126
3043 3046 3046 3046 3045 3043 3046 3042 3042 3043 3046 3046 3046 3047 3049 3050 3053 3056 3058 3059 3060 3061 3062 3063 3064 3064 3065 3067 3069 3070 3072 3075 3077 3080 3085 3088 3091 3095 3098 3101 3104 3109 3113 3116 3117 3119 3120 3121 3121
3039 3039 3043 3044 3042 3044 3039 3037 3037 3039 3041 3042 3043 3043 3045 3047 3050 3053 3055 3056 3058 3060 3061 3062 3064 3065 3066 3068 3071 3072 3074 3076 3077 3080 3082 3086 3089 3093 3096 3100 3103 3105 3107 3110 3111 3111 3111 3112 3112
3033 3039 3041 3041 3039 3036 3031 3033 3034 3034 3037 3039 3040 3039 3040 3042 3046 3050 3052 3054 3056 3058 3060 3061 3063 3064 3066 3068 3070 3072 3075 3077 3078 3081 3084 3086 3089 3091 3093 3094 3096 3100 3102 3103 3104 3103 3103 3101 3100
3029 3030 3034 3034 3032 3027 3026 3025 3029 3031 3033 3033 3035 3036 3037 3039 3043 3046 3049 3051 3053 3055 3057 3059 3060 3062 3064 3066 3069 3071 3073 3076 3078 3081 3083 3085 3087 3088 3090 3091 3093 3095 3096 3096 3096 3094 3092 3089 3087
3023 3026 3028 3028 3025 3026 3024 3019 3026 3028 3029 3031 3033 3034 3036 3038 3040 3042 3046 3048 3049 3051 3053 3055 3056 3058 3060 3062 3064 3066 3069 3071 3074 3077 3080 3082 3084 3085 3087 3088 3089 3089 3090 3089 3086 3082 3080 3074 3073